Location: الشقيري
(17.1356°N, 42.8272°E)
Time: 20:18:22
(UTC+00:00)

Vanguard 1 - Visible Passes

Search period start: 14 October 2019 00:00
Search period end: 24 October 2019 00:00
Orbit: 653 x 3830 km, 34.3° (Epoch: 14 October)

Date Brightness Start Highest point End Pass type
(mag) Time Alt. Az. Time Alt. Az. Time Alt. Az.
14 Oct 12.9 01:42:27 22° WNW 01:57:55 48° SW 02:14:10 10° SSE visible
14 Oct 11.6 16:19:54 10° W 16:27:56 58° NNW 16:37:21 24° NE visible
14 Oct 12.8 18:42:16 10° WNW 18:50:02 36° NNW 18:50:02 36° NNW visible
14 Oct 13.6 21:37:24 31° E 21:37:24 31° E 21:47:05 10° E visible
14 Oct 12.6 23:50:10 76° WNW 23:53:07 85° SW 00:14:03 10° SE visible
15 Oct 13.1 02:02:57 17° W 02:19:01 37° SW 02:34:10 10° SSE visible
15 Oct 11.9 16:41:21 10° W 16:49:44 48° NNW 16:57:00 29° NE visible
15 Oct 13.0 19:03:59 10° WNW 19:09:42 29° NW 19:09:42 29° NW visible
15 Oct 13.4 21:57:51 39° E 21:57:51 39° E 22:09:38 10° ESE visible
16 Oct 12.6 00:10:38 65° W 00:14:45 72° SW 00:35:07 10° SE visible
16 Oct 13.3 02:23:24 11° W 02:40:09 27° SW 02:53:41 10° S visible
16 Oct 12.2 17:02:55 10° WNW 17:11:44 42° N 17:16:37 33° NNE visible
16 Oct 13.2 19:25:35 10° WNW 20:05:29 - E 19:29:19 23° NW visible
16 Oct 13.2 22:18:16 47° E 22:18:16 47° E 22:31:50 10° ESE visible
17 Oct 12.8 00:31:01 53° WSW 00:36:14 60° SW 00:55:52 10° SE visible
17 Oct 13.6 02:48:08 10° W 03:01:25 19° SW 03:12:22 10° S visible
17 Oct 11.0 15:03:04 10° WSW 15:09:23 65° NNW 15:21:04 10° NE visible
17 Oct 12.4 17:24:35 10° WNW 17:33:52 39° N 17:36:12 37° NNE visible
17 Oct 13.5 19:47:05 10° NW 20:25:50 - E 19:48:54 16° NW visible
17 Oct 13.0 22:38:36 55° ESE 22:38:36 55° ESE 22:53:41 10° ESE visible
18 Oct 12.9 00:51:21 42° WSW 00:57:36 48° SW 01:16:17 10° SSE visible
18 Oct 11.4 15:24:21 10° W 15:30:53 50° NNW 15:42:43 10° NE visible
18 Oct 12.5 17:46:13 10° WNW 17:55:45 38° N 17:55:45 38° N visible
18 Oct 13.7 20:08:26 10° NW 20:46:06 11° E 20:46:49 10° E visible
18 Oct 12.9 22:58:51 61° SE 22:58:51 61° SE 23:15:11 10° SE visible
19 Oct 13.2 01:11:36 32° WSW 01:18:57 37° SW 01:36:22 10° SSE visible
19 Oct 11.8 15:45:49 10° W 15:52:35 40° NNW 16:02:37 14° NE visible
19 Oct 12.6 18:07:47 10° WNW 18:15:18 35° NNW 18:15:18 35° NNW visible
19 Oct 13.9 21:06:16 17° ESE 21:06:16 17° ESE 21:09:32 10° ESE visible
19 Oct 12.9 23:19:01 61° SSE 23:19:01 61° SSE 23:36:20 10° SE visible
20 Oct 13.4 01:31:45 23° WSW 01:40:22 28° SW 01:55:57 10° S visible
20 Oct 12.0 16:07:24 10° WNW 16:14:28 35° N 16:22:09 19° NE visible
20 Oct 12.7 18:29:12 10° NW 18:34:50 31° NNW 18:34:50 31° NNW visible
20 Oct 13.9 21:26:21 22° ESE 21:26:21 22° ESE 21:31:54 10° ESE visible
20 Oct 12.9 23:39:06 56° SSW 23:39:06 56° SSW 23:57:09 10° SE visible
21 Oct 13.6 01:51:49 15° WSW 02:01:57 20° SW 02:14:49 10° S visible
21 Oct 12.2 16:29:00 10° WNW 16:36:26 33° N 16:41:40 25° NE visible
21 Oct 13.0 18:50:29 10° NW 18:54:22 25° NW 18:54:22 25° NW visible
21 Oct 13.7 21:46:21 28° ESE 21:46:21 28° ESE 21:53:52 10° ESE visible
21 Oct 13.0 23:59:05 47° SSW 23:59:05 47° SSW 00:17:38 10° SSE visible
22 Oct 13.8 02:15:06 10° WSW 02:23:51 13° SW 02:31:54 10° SSW visible
22 Oct 12.3 16:50:33 10° NW 16:58:28 32° N 17:01:12 30° NNE visible
22 Oct 13.2 19:11:40 10° NW 19:13:53 19° NW 19:13:53 19° NW visible
22 Oct 13.6 22:06:16 33° SE 22:06:16 33° SE 22:15:28 10° SE visible
23 Oct 13.2 00:18:59 37° SW 00:18:59 37° SW 00:37:46 10° SSE visible
23 Oct 11.6 14:50:29 10° WNW 14:55:54 32° N 15:04:39 10° NE visible
23 Oct 12.3 17:11:58 10° NW 17:20:29 34° NNE 17:20:44 34° NNE visible
23 Oct 13.5 19:32:46 10° NW 20:13:22 - ESE 19:33:25 12° NW visible
23 Oct 13.5 22:26:04 36° SSE 22:26:04 36° SSE 22:36:42 10° SE visible
